Weather observations for the past three days for
Brookings, Brookings Airport
Imperial (Metric)
Date Time (pdt) Wind (mph) Vis. (mi.) Weather Sky Cond. Temperature (ºF) Relative Humidity Wind Chill (°F) Heat Index (°F) Pressure Precipitation (in)
Air Dwpt 6 hour altimeter (in) sea level (mb) 1 hr 3 hr 6 hr
Max. Min.
06 00:56 Calm 2.00 Fog/Mist BKN003 OVC009 51.1 51.1 100% 30.11 1019.5
05 23:56 Vrbl 3 2.50 Fog/Mist BKN003 OVC012 51.1 51.1 100% 30.09 1019.0
05 22:56 NW 3 5.00 Fog/Mist OVC010 52 51.1 55.9 51.1 97% 30.09 1018.8
05 21:56 Calm 4.00 Fog/Mist OVC008 52 51.1 97% 30.08 1018.7
05 20:56 Calm 8.00 Overcast OVC012 53.1 50 89% 30.07 1018.2
05 19:56 NW 5 10.00 Overcast OVC012 53.1 50 89% 30.04 1017.4
05 18:56 NW 3 10.00 Overcast OVC012 55 50 83% 30.03 1017.1
05 17:56 NW 7 10.00 Overcast OVC014 55 50 83% 30.03 1016.8
05 16:56 NW 7 10.00 Overcast OVC014 55.9 50 59 55 81% 30.03 1016.8
05 15:56 Vrbl 6 10.00 Overcast OVC014 57 50 78% 30.03 1017.0
05 14:56 W 9 10.00 Overcast OVC018 57 48.9 74% 30.03 1017.0
05 13:56 Vrbl 7 10.00 Overcast OVC020 59 48.9 69% 30.03 1016.9
05 12:56 W 8 10.00 Overcast OVC018 59 48.9 69% 30.04 1017.2
05 11:56 Vrbl 5 10.00 Overcast OVC018 55.9 48 75% 30.04 1017.1
05 10:56 SW 5 10.00 Overcast OVC018 55 48 55.9 52 77% 30.03 1016.8
05 09:56 SW 3 10.00 Overcast OVC018 55 48.9 80% 30.02 1016.7
05 08:56 Calm 10.00 Overcast OVC018 54 48 80% 30.02 1016.5
05 07:56 Calm 10.00 Overcast OVC020 53.1 48.9 86% 30.01 1016.3
05 06:56 Calm 10.00 Overcast OVC020 53.1 50 89% 30.01 1016.1
05 05:56 Calm 10.00 Overcast OVC020 53.1 50 89% 30 1015.9
05 04:56 Calm 10.00 Overcast OVC022 53.1 50 54 52 89% 29.99 1015.6
05 03:56 Calm 10.00 Overcast OVC022 53.1 50 89% 29.99 1015.4
05 02:56 Calm 10.00 Overcast OVC022 53.1 50 89% 29.99 1015.5
05 01:56 Calm 10.00 Overcast OVC024 53.1 50 89% 30 1015.9
05 00:56 Calm 10.00 Overcast OVC022 53.1 50 89% 30.01 1016.2
04 23:56 Calm 10.00 Overcast FEW014 OVC022 53.1 51.1 93% 30.01 1016.2
04 22:56 SE 3 10.00 Overcast BKN020 OVC028 54 51.1 57 53.1 90% 30.01 1016.2
04 21:56 Calm 10.00 Overcast OVC022 53.1 50 89% 30.01 1016.3
04 20:56 Calm 10.00 Overcast OVC022 54 51.1 90% 30 1015.9
04 19:56 S 5 10.00 Overcast BKN005 OVC024 54 52 93% 29.98 1015.3
04 18:56 Calm 10.00 Overcast OVC024 55 51.1 87% 29.98 1015.4
04 17:56 SW 5 10.00 Overcast OVC024 55.9 51.1 84% 29.99 1015.5
04 16:56 SW 3 10.00 Overcast OVC024 57 48.9 59 53.1 74% 29.99 1015.5
04 15:56 Vrbl 3 10.00 Overcast FEW017 OVC024 57.9 50 75% 30 1015.7
04 14:56 SE 7 10.00 Overcast SCT015 OVC024 57.9 50 75% 30.01 1016.1
04 13:56 S 7 10.00 Overcast BKN011 OVC024 57 51.1 81% 30.01 1016.4
04 12:56 S 7 10.00 Overcast OVC009 55.9 51.1 84% 30.02 1016.5
04 11:56 S 6 10.00 Overcast OVC007 55 52 90% 30.02 1016.7
04 10:56 Vrbl 5 10.00 Overcast OVC002 53.1 52 53.1 51.1 96% 30.02 1016.6
04 09:56 SE 7 7.00 Overcast OVC002 52 52 100% 30.01 1016.2
04 08:56 Vrbl 3 4.00 Fog/Mist OVC004 52 52 100% 30 1016.0
04 07:56 Vrbl 3 2.00 Fog/Mist OVC004 52 51.1 97% 29.99 1015.7
04 06:56 SE 3 10.00 Overcast OVC004 51.1 51.1 100% 29.98 1015.2
04 05:56 Calm 7.00 Overcast BKN010 OVC015 51.1 51.1 100% 29.96 1014.7
04 04:56 Calm 10.00 Overcast OVC012 51.1 51.1 52 51.1 100% 29.96 1014.7 0.01
04 03:56 Calm 10.00 Light Rain OVC012 51.1 51.1 100% 29.96 1014.7
04 02:56 Calm 10.00 Overcast SCT010 BKN022 OVC027 51.1 51.1 100% 29.97 1014.9
04 01:56 SE 5 4.00 Fog/Mist OVC002 51.1 51.1 100% 29.98 1015.2 0.01 0.01
04 00:56 SE 5 1.75 Light Rain Fog/Mist OVC002 51.1 51.1 100% 30 1015.9
03 23:56 Vrbl 6 2.50 Light Rain Fog/Mist OVC004 51.1 51.1 100% 29.99 1015.9
03 22:56 Vrbl 3 7.00 Overcast OVC002 51.1 51.1 54 51.1 100% 29.98 1015.4 0.02
03 21:56 SE 5 4.00 Fog/Mist OVC002 51.1 51.1 100% 29.97 1015.2
03 20:56 Vrbl 3 6.00 Fog/Mist OVC002 51.1 51.1 100% 29.94 1014.1
03 19:56 S 7 1.75 Light Rain Fog/Mist OVC002 52 51.1 97% 29.92 1013.3 0.02 0.02
03 18:51 SE 7 7.00 Thunderstorm in Vicinity Light Rain BKN004 OVC011 52 51.1 97% 29.92 1013.5
03 17:56 S 10 10.00 Overcast OVC008 53.1 50 89% 29.92 1013.3
03 16:56 S 8 10.00 Overcast OVC004 52 50 53.1 51.1 93% 29.91 1013.2
03 15:56 S 7 10.00 Overcast OVC002 52 50 93% 29.92 1013.4
03 14:56 S 7 10.00 Overcast OVC004 53.1 50 89% 29.9 1012.6
03 13:56 SE 5 7.00 Overcast OVC002 51.1 50 96% 29.9 1012.8
03 12:56 Vrbl 3 5.00 Fog/Mist OVC002 52 51.1 97% 29.89 1012.3
03 11:56 Vrbl 5 1.75 Light Rain Fog/Mist OVC002 51.1 51.1 100% 29.91 1012.9
03 10:56 S 7 0.50 Light Rain Fog OVC002 51.1 51.1 51.1 48.9 100% 29.9 1012.6
03 09:56 S 3 0.75 Fog/Mist OVC002 50 50 100% 29.89 1012.4
03 08:56 S 3 0.50 Fog OVC002 50 50 100% 29.88 1012.0
03 07:56 E 3 0.25 Fog OVC002 50 50 100% 29.86 1011.3
03 06:56 E 3 0.25 Fog OVC002 50 50 100% 29.85 1011.0
03 05:56 Calm 0.50 Fog OVC002 50 50 100% 29.85 1010.9
03 04:56 Calm 2.50 Fog/Mist OVC002 48.9 48.9 52 48.9 100% 29.86 1011.1
03 03:56 Vrbl 3 1.75 Fog/Mist OVC002 50 48.9 96% 29.86 1011.1
03 02:56 Vrbl 3 5.00 Fog/Mist OVC004 50 48.9 96% 29.87 1011.4
03 01:56 SE 5 6.00 Fog/Mist OVC004 51.1 50 96% 29.88 1011.7
Date Time (pdt) Wind (mph) Vis. (mi.) Weather Sky Cond. Air Dwpt Max. Min. Relative Humidity Wind Chill (°F) Heat Index (°F) altimeter (in) sea level (mb) 1 hr 3 hr 6 hr
6 hour
Temperature (ºF) Pressure Precipitation (in)